Change the Weather History Date:

Wednesday, March 19, 2014

  Actual Average Record
Temperature  
Mean Temperature 35 °F 34 °F  
Max Temperature 41 °F 43 °F 78 °F (2012)
Min Temperature 28 °F 25 °F -2 °F (1965)
Degree Days  
Heating Degree Days 30 31  
Month to date heating degree days 780 667  
Since 1 July heating degree days 7271 6582  
Cooling Degree Days 0 0  
Month to date cooling degree days 0 0  
Year to date cooling degree days 0 0  
Moisture  
Dew Point 29 °F    
Average Humidity 83    
Maximum Humidity 100    
Minimum Humidity 65    
Precipitation  
Precipitation T in 0.06 in 0.78 in (1971)
Month to date precipitation 0.08 0.76  
Sea Level Pressure  
Sea Level Pressure 29.93 in    
Wind  
Wind Speed 14 mph (NW)    
Max Wind Speed 24 mph    
Max Gust Speed 29 mph    
Visibility 8 miles    
Events Snow    
T = Trace of Precipitation, MM = Missing Value Source: NWS Daily Summary

Daily Weather History Graph

Daily Weather History Graph

Search for Another Location

Airport or City:

Trip Planner

Search our weather history database for the weather conditions in past years. The results will help you decide how hot, cold, wet, or windy it might be!

Date:

Astronomy

Mar. 19, 2014 Rise Set
Actual Time 7:23 AM CDT 7:30 PM CDT
Civil Twilight 6:55 AM CDT 7:58 PM CDT
Nautical Twilight 6:22 AM CDT 8:32 PM CDT
Astronomical Twilight 5:48 AM CDT 9:06 PM CDT
Moon 10:55 PM CDT (3/19) 8:44 AM CDT (3/19)
Length of Visible Light 13h 03m
Length of Day
12h 06m
Waning Gibbous, 91% of the Moon is Illuminated
Mar 19
Waning Gibbous
Mar 23
Last Quarter
Mar 30
New
Apr 7
First Quarter
Apr 15
Full

Hourly Weather History & Observations

Time (CDT) Temp. Windchill Dew Point Humidity Pressure Visibility Wind Dir Wind Speed Gust Speed Precip Events Conditions
12:23 AM 28.9 °F 15.8 °F 28.0 °F 96% 29.77 in 2.5 mi North 20.7 mph 27.6 mph 0.00 in Snow Light Snow
12:48 AM 28.4 °F 15.1 °F 28.4 °F 100% 29.77 in 3.0 mi North 20.7 mph - 0.00 in Snow Light Snow
12:52 AM 28.9 °F 15.8 °F 28.0 °F 96% 29.81 in 3.0 mi North 20.7 mph 26.5 mph 0.00 in Snow Light Snow
1:18 AM 28.9 °F 16.1 °F 28.0 °F 96% 29.77 in 2.5 mi North 19.6 mph - 0.00 in Snow Light Snow
1:25 AM 28.9 °F 15.4 °F 28.0 °F 96% 29.77 in 3.0 mi North 21.9 mph 27.6 mph 0.00 in Snow Light Snow
1:52 AM 28.9 °F 15.8 °F 28.0 °F 96% 29.81 in 4.0 mi NNW 20.7 mph - 0.00 in   Overcast
2:52 AM 28.0 °F 14.3 °F 27.0 °F 96% 29.83 in 5.0 mi NNW 21.9 mph - N/A   Overcast
3:14 AM 28.0 °F 15.3 °F 27.0 °F 96% 29.79 in 6.0 mi NNW 18.4 mph 28.8 mph N/A   Overcast
3:52 AM 28.0 °F 14.6 °F 27.0 °F 96% 29.84 in 6.0 mi NNW 20.7 mph - N/A   Overcast
4:14 AM 28.9 °F 16.1 °F 27.0 °F 92% 29.81 in 7.0 mi NNW 19.6 mph - N/A   Overcast
4:52 AM 30.0 °F 17.5 °F 27.0 °F 88% 29.86 in 7.0 mi NNW 19.6 mph 27.6 mph N/A   Overcast
5:36 AM 28.9 °F 16.1 °F 28.0 °F 96% 29.84 in 7.0 mi NNW 19.6 mph - N/A   Overcast
5:52 AM 28.9 °F 15.8 °F 28.0 °F 96% 29.89 in 7.0 mi NNW 20.7 mph - N/A   Overcast
6:26 AM 28.9 °F 16.9 °F 28.0 °F 96% 29.85 in 7.0 mi NNW 17.3 mph - N/A   Mostly Cloudy
6:52 AM 28.9 °F 15.4 °F 27.0 °F 92% 29.91 in 7.0 mi NW 21.9 mph - N/A   Overcast
7:11 AM 28.9 °F 16.1 °F 28.0 °F 96% 29.87 in 7.0 mi NW 19.6 mph - N/A   Overcast
7:52 AM 28.9 °F 17.3 °F 28.0 °F 96% 29.94 in 7.0 mi NNW 16.1 mph 25.3 mph N/A   Overcast
8:52 AM 30.0 °F 18.7 °F 27.0 °F 88% 29.96 in 9.0 mi NW 16.1 mph - N/A   Overcast
9:23 AM 30.0 °F 19.1 °F 28.0 °F 92% 29.92 in 8.0 mi NW 15.0 mph - N/A   Overcast
9:52 AM 30.0 °F 18.7 °F 28.0 °F 92% 29.98 in 7.0 mi NW 16.1 mph - N/A   Overcast
10:12 AM 30.9 °F 19.4 °F 28.0 °F 89% 29.93 in 8.0 mi NW 17.3 mph - N/A   Overcast
10:52 AM 32.0 °F 21.6 °F 27.0 °F 82% 29.99 in 10.0 mi NNW 15.0 mph - N/A   Overcast
11:52 AM 34.0 °F 23.4 °F 28.0 °F 79% 30.01 in 10.0 mi NNW 17.3 mph - N/A   Overcast
12:26 PM 34.0 °F 23.4 °F 28.0 °F 79% 29.97 in 10.0 mi NW 17.3 mph - N/A   Overcast
12:44 PM 35.1 °F 24.5 °F 30.0 °F 82% 29.98 in 10.0 mi WNW 18.4 mph - N/A   Overcast
12:52 PM 35.1 °F 24.5 °F 28.9 °F 78% 30.02 in 10.0 mi NW 18.4 mph - N/A   Overcast
1:52 PM 35.1 °F 24.5 °F 28.9 °F 78% 30.03 in 10.0 mi WNW 18.4 mph - N/A   Overcast
2:44 PM 36.0 °F 25.0 °F 28.0 °F 73% 29.97 in 10.0 mi WNW 20.7 mph 26.5 mph N/A   Overcast
2:52 PM 37.0 °F 28.5 °F 28.9 °F 73% 30.01 in 10.0 mi NW 13.8 mph 26.5 mph N/A   Overcast
3:10 PM 37.9 °F 28.2 °F 30.0 °F 73% 29.97 in 10.0 mi NW 18.4 mph - N/A   Overcast
3:24 PM 37.9 °F 28.9 °F 28.9 °F 70% 29.97 in 10.0 mi NW 16.1 mph - N/A   Overcast
3:35 PM 39.0 °F 30.3 °F 30.0 °F 70% 29.97 in 10.0 mi WNW 16.1 mph - N/A   Overcast
3:52 PM 37.9 °F 28.9 °F 28.9 °F 70% 30.01 in 10.0 mi WNW 16.1 mph - N/A   Mostly Cloudy
4:52 PM 41.0 °F 32.8 °F 30.9 °F 67% 30.00 in 10.0 mi WNW 16.1 mph - N/A   Mostly Cloudy
5:52 PM 41.0 °F 32.8 °F 32.0 °F 70% 30.00 in 10.0 mi West 16.1 mph - N/A   Clear
6:52 PM 39.0 °F 32.3 °F 32.0 °F 76% 30.01 in 10.0 mi WNW 10.4 mph - N/A   Clear
7:52 PM 33.1 °F 27.7 °F 30.9 °F 92% 30.01 in 10.0 mi WNW 5.8 mph - N/A   Partly Cloudy
8:52 PM 35.1 °F 32.2 °F 30.9 °F 85% 30.01 in 10.0 mi West 3.5 mph - N/A   Overcast
9:52 PM 35.1 °F 31.0 °F 30.9 °F 85% 30.01 in 10.0 mi NW 4.6 mph - N/A   Overcast
10:42 PM 35.1 °F 28.6 °F 30.9 °F 85% 29.98 in 10.0 mi WNW 8.1 mph - N/A   Overcast
10:52 PM 34.0 °F 28.0 °F 30.9 °F 89% 30.02 in 10.0 mi WNW 6.9 mph - N/A   Overcast
11:21 PM 32.0 °F 25.6 °F 30.0 °F 92% 29.98 in 10.0 mi WNW 6.9 mph - N/A   Scattered Clouds
11:42 PM 33.1 °F 26.9 °F 32.0 °F 96% 29.98 in 10.0 mi WNW 6.9 mph - N/A   Mostly Cloudy
11:52 PM 35.1 °F 31.0 °F 33.1 °F 92% 30.03 in 10.0 mi Variable 4.6 mph - N/A   Overcast